{"data":{"norad_id":55923,"epoch":"2026-05-25T04:09:09.257184Z","epoch_age_seconds":60017,"freshness":"FRESH","line1":"1 55923U 23037K   26145.17302381  .00000780  00000+0  73181-4 0  9990","line2":"2 55923  69.9988 111.6149 0003553 265.0398  95.0355 14.98327791174940","mean_motion":14.98327791,"eccentricity":0.0003553,"inclination_deg":69.9988,"raan_deg":111.6149,"arg_perigee_deg":265.0398,"mean_anomaly_deg":95.0355,"bstar":7.3181e-5,"rev_number":17494,"period_min":96.107140817226,"perigee_km":569.59331614183,"apogee_km":574.53212806435,"semimajor_km":6950.1997221031,"source":"CELESTRAK","updated_at":"2026-05-25T13:38:17.911666Z"}}